星链-3732 (STARLINK-3732 )

导读 | 豆包AI

STARLINK-3732是美国SpaceX星链项目中的低轨通信卫星,于2022年3月19日发射。它运行在近地轨道,属于星链一代组网卫星,承担全球卫星互联网服务部署任务。作为星链星座的组成单元,该卫星为后续实现全球高速低延迟宽带覆盖、填补偏远地区网络空白提供支撑,是星链大规模组网进程中的重要一环,助力构建覆盖全球的天基通信基础设施。

基本信息
目录编号:
52126
目录名称:
STARLINK-3732
国际标识:
2022-029AQ
轨道中心:
EARTH
卫星名称:
星链-3732
卫星全名:
星链-3732 (STARLINK-3732 )
卫星状态:
在轨 (已飞行1503 天)
发射日期:
2022-03-19 UTC
国别 :
美国 (US)
星等 :
--
轨道信息
数据来源 国际轨道数据 AOE轨道数据
星历时间 2026-04-30T23:06:22+0800
6小时前
查看轨道信息
2026-04-30T08:00:00+0800
22小时前
查看轨道信息
半长轴 6917.886km 6917.897km
偏心率 0.0000998 0.0001235
轨道倾角 53.217° 53.217°
近地点辐角 82.176° 46.165°
升交点赤经 195.955° 198.783°
平近点角 277.935° 133.157°
近地点 539.058km 538.905km
远地点 540.44km 540.615km
周期 95.438分钟 95.438分钟
每日圈数 15.088382 15.088347
详细信息
固有亮度:
5
最大亮度:
2.5
卫星平台:
Starlink v1.5
覆盖范围:
全球
运营商:
太空探索技术公司
运营商所在国:
美国
制造商(研发单位):
太空探索技术公司
制造商所在国:
美国
使用方式:
暂无
卫星简介
星链(Starlink)计划是由太空探索技术公司(SpaceX)提出的一个巨型低轨卫星互联网星座项目,计划在2019年至2024年间在太空搭建由约1.2万颗卫星组成的“星链”网络,其中1584颗将部署在地球上空550千米处的近地轨道,并从2020年开始工作。该卫星仍在工作。
2D轨道图
3D轨道图
轨道高度分析图
轨道倾角分析图
轨道综合分析图
查看轨道综合分析图